TOM6JA EGCC-LEMH

Flight info

Callsign TOM6JA
Flight time 2h 12m
Altitude 37000
Route LISTO P18 TELBA L151 KIDLI UN859 SOPIL DCT BALAN DCT EVPOK DCT NARAK DCT GAI DCT LOMRA DCT ROCAN DCT GEANT DCT GIR DCT SALON N727 SARGO
Aircraft B738/M-SDE2E3FGHIRWXY/LB1

Departure

Time 2026-05-05 17:11
Airport Manchester Airport (EGCC)

Arrival

Time 2026-05-05 19:23
Airport Menorca Airport (LEMH)
Time Latitude Longitude Altitude Speed Heading
2026-05-05 15:57 53.36574 -2.28961 254 ft 0 kts 225°
2026-05-05 16:50 53.36587 -2.28940 254 ft 4 kts 225°
2026-05-05 16:51 53.36606 -2.28910 254 ft 4 kts 209°
2026-05-05 16:51 53.36628 -2.28901 254 ft 4 kts 159°
2026-05-05 16:51 53.36645 -2.28919 254 ft 1 kts 136°
2026-05-05 16:51 53.36648 -2.28923 254 ft 0 kts 136°
2026-05-05 16:55 53.36646 -2.28920 254 ft 1 kts 136°
2026-05-05 16:55 53.36633 -2.28899 254 ft 4 kts 137°
2026-05-05 16:55 53.36602 -2.28848 254 ft 8 kts 131°
2026-05-05 16:55 53.36576 -2.28752 254 ft 11 kts 106°
2026-05-05 16:56 53.36532 -2.28636 254 ft 13 kts 134°
2026-05-05 16:56 53.36461 -2.28517 254 ft 16 kts 134°
2026-05-05 16:56 53.36381 -2.28382 254 ft 18 kts 135°
2026-05-05 16:56 53.36289 -2.28228 254 ft 19 kts 135°
2026-05-05 16:57 53.36196 -2.28071 254 ft 19 kts 134°
2026-05-05 16:57 53.36103 -2.27920 254 ft 19 kts 136°
2026-05-05 16:57 53.35991 -2.27836 254 ft 18 kts 182°
2026-05-05 16:57 53.35865 -2.27857 254 ft 18 kts 186°
2026-05-05 16:58 53.35739 -2.27877 253 ft 19 kts 186°
2026-05-05 16:58 53.35602 -2.27901 248 ft 21 kts 186°
2026-05-05 16:58 53.35457 -2.27936 245 ft 20 kts 202°
2026-05-05 16:58 53.35354 -2.28087 240 ft 20 kts 224°
2026-05-05 16:59 53.35259 -2.28245 237 ft 19 kts 229°
2026-05-05 16:59 53.35173 -2.28423 230 ft 21 kts 231°
2026-05-05 16:59 53.35073 -2.28627 224 ft 22 kts 230°
2026-05-05 16:59 53.34986 -2.28790 219 ft 15 kts 226°
2026-05-05 17:00 53.34912 -2.28919 215 ft 16 kts 226°
2026-05-05 17:00 53.34851 -2.29025 215 ft 10 kts 224°
2026-05-05 17:00 53.34803 -2.29068 215 ft 2 kts 192°
2026-05-05 17:00 53.34794 -2.29070 212 ft 0 kts 188°
2026-05-05 17:09 53.34776 -2.29072 209 ft 5 kts 181°
2026-05-05 17:09 53.34718 -2.29042 211 ft 12 kts 153°
2026-05-05 17:09 53.34686 -2.28925 208 ft 10 kts 57°
2026-05-05 17:10 53.34731 -2.28830 211 ft 12 kts 51°
2026-05-05 17:10 53.34917 -2.28443 224 ft 78 kts 51°
2026-05-05 17:10 53.35404 -2.27437 251 ft 142 kts 51°
2026-05-05 17:10 53.36091 -2.26013 514 ft 171 kts 51°
2026-05-05 17:11 53.36826 -2.24423 1267 ft 175 kts 49°
2026-05-05 17:11 53.37503 -2.22766 2119 ft 179 kts 68°
2026-05-05 17:11 53.37585 -2.20571 2543 ft 207 kts 106°
2026-05-05 17:11 53.36708 -2.18556 2808 ft 229 kts 145°
2026-05-05 17:12 53.35286 -2.17095 3060 ft 253 kts 156°
2026-05-05 17:12 53.33518 -2.16692 3538 ft 265 kts 187°
2026-05-05 17:12 53.31682 -2.17070 4428 ft 266 kts 187°
2026-05-05 17:12 53.29847 -2.17127 4795 ft 269 kts 171°
2026-05-05 17:13 53.28001 -2.16431 5351 ft 275 kts 166°
2026-05-05 17:13 53.26158 -2.15616 6319 ft 273 kts 165°
2026-05-05 17:13 53.24345 -2.14801 7097 ft 278 kts 165°
2026-05-05 17:13 53.22407 -2.14085 7868 ft 281 kts 180°
2026-05-05 17:14 53.20525 -2.14846 8652 ft 280 kts 208°
2026-05-05 17:14 53.18801 -2.16386 9471 ft 284 kts 208°
2026-05-05 17:14 53.17012 -2.17842 10215 ft 288 kts 206°
2026-05-05 17:14 53.15125 -2.19267 10507 ft 310 kts 204°
2026-05-05 17:15 53.12971 -2.20278 10689 ft 334 kts 188°
2026-05-05 17:15 53.10626 -2.20629 11083 ft 348 kts 185°
2026-05-05 17:15 53.08232 -2.20914 11730 ft 353 kts 185°
2026-05-05 17:15 53.07432 -2.21016 11975 ft 354 kts 185°
2026-05-05 17:16 53.06238 -2.21177 12357 ft 355 kts 186°
2026-05-05 17:16 53.03770 -2.21537 13111 ft 358 kts 186°
2026-05-05 17:16 53.01345 -2.21909 13814 ft 361 kts 186°
2026-05-05 17:17 52.98789 -2.22310 14470 ft 365 kts 186°
2026-05-05 17:17 52.96258 -2.22733 15133 ft 367 kts 188°
2026-05-05 17:17 52.93726 -2.23404 15785 ft 369 kts 191°
2026-05-05 17:17 52.91232 -2.24199 16423 ft 371 kts 192°
2026-05-05 17:18 52.88692 -2.25034 16982 ft 374 kts 192°
2026-05-05 17:18 52.86130 -2.25864 17513 ft 377 kts 192°
2026-05-05 17:18 52.83540 -2.26681 18052 ft 380 kts 191°
2026-05-05 17:18 52.80931 -2.27488 18569 ft 383 kts 191°
2026-05-05 17:19 52.78318 -2.28286 19030 ft 385 kts 191°
2026-05-05 17:19 52.76007 -2.28989 19454 ft 387 kts 191°
2026-05-05 17:19 52.73351 -2.29794 19923 ft 389 kts 191°
2026-05-05 17:19 52.70884 -2.30542 20353 ft 391 kts 191°
2026-05-05 17:20 52.68175 -2.31021 20785 ft 395 kts 178°
2026-05-05 17:20 52.65458 -2.30261 21247 ft 398 kts 163°
2026-05-05 17:20 52.63143 -2.28545 21664 ft 402 kts 149°
2026-05-05 17:20 52.60809 -2.25982 22121 ft 404 kts 147°
2026-05-05 17:21 52.58482 -2.23344 22524 ft 407 kts 147°
2026-05-05 17:21 52.56139 -2.20697 22896 ft 411 kts 147°
2026-05-05 17:21 52.53766 -2.18049 23295 ft 413 kts 147°
2026-05-05 17:22 52.48962 -2.12767 24031 ft 417 kts 148°
2026-05-05 17:22 52.46545 -2.10130 24369 ft 419 kts 148°
2026-05-05 17:22 52.44111 -2.07478 24685 ft 421 kts 148°
2026-05-05 17:22 52.41664 -2.04816 25030 ft 422 kts 148°
2026-05-05 17:23 52.39242 -2.02182 25366 ft 423 kts 148°
2026-05-05 17:23 52.36781 -1.99506 25680 ft 425 kts 148°
2026-05-05 17:23 52.34371 -1.96892 25961 ft 427 kts 148°
2026-05-05 17:23 52.31886 -1.94201 26241 ft 430 kts 148°
2026-05-05 17:24 52.29379 -1.91489 26512 ft 432 kts 148°
2026-05-05 17:24 52.26868 -1.88777 26811 ft 433 kts 148°
2026-05-05 17:24 52.25193 -1.86976 27011 ft 434 kts 148°
2026-05-05 17:24 52.21806 -1.83354 27380 ft 437 kts 149°
2026-05-05 17:25 52.19253 -1.80633 27648 ft 438 kts 149°
2026-05-05 17:25 52.17562 -1.78831 27829 ft 439 kts 149°
2026-05-05 17:25 52.14130 -1.75175 28211 ft 441 kts 149°
2026-05-05 17:25 52.11568 -1.72450 28508 ft 441 kts 149°
2026-05-05 17:26 52.08991 -1.69715 28737 ft 443 kts 149°
2026-05-05 17:26 52.06395 -1.66973 28955 ft 445 kts 149°
2026-05-05 17:26 52.03820 -1.64271 29184 ft 447 kts 149°
2026-05-05 17:26 52.01209 -1.61536 29436 ft 448 kts 149°
2026-05-05 17:27 51.98593 -1.58766 29678 ft 449 kts 148°
2026-05-05 17:27 51.95983 -1.55987 29996 ft 448 kts 148°
2026-05-05 17:27 51.93385 -1.53221 30323 ft 446 kts 148°
2026-05-05 17:27 51.90791 -1.50468 30611 ft 445 kts 148°
2026-05-05 17:28 51.88200 -1.47729 30855 ft 445 kts 149°
2026-05-05 17:28 51.85603 -1.44996 31117 ft 445 kts 149°
2026-05-05 17:28 51.83013 -1.42282 31407 ft 443 kts 149°
2026-05-05 17:28 51.80428 -1.39579 31697 ft 442 kts 149°
2026-05-05 17:29 51.77818 -1.36955 31953 ft 441 kts 153°
2026-05-05 17:29 51.75037 -1.34900 32207 ft 438 kts 162°
2026-05-05 17:29 51.72438 -1.33609 32474 ft 436 kts 165°
2026-05-05 17:29 51.69529 -1.32238 32748 ft 435 kts 165°
2026-05-05 17:30 51.66629 -1.30826 32995 ft 435 kts 164°
2026-05-05 17:30 51.63780 -1.29222 33254 ft 435 kts 157°
2026-05-05 17:30 51.61042 -1.27154 33540 ft 434 kts 155°
2026-05-05 17:30 51.58331 -1.25009 33825 ft 433 kts 155°
2026-05-05 17:31 51.55624 -1.22845 34061 ft 433 kts 155°
2026-05-05 17:31 51.52978 -1.20739 34190 ft 433 kts 155°
2026-05-05 17:31 51.50266 -1.18600 34343 ft 434 kts 155°
2026-05-05 17:31 51.47554 -1.16479 34523 ft 434 kts 155°
2026-05-05 17:32 51.45750 -1.15077 34632 ft 434 kts 155°
2026-05-05 17:32 51.43020 -1.12964 34800 ft 435 kts 155°
2026-05-05 17:32 51.40290 -1.10858 34968 ft 435 kts 155°
2026-05-05 17:32 51.37561 -1.08758 35133 ft 435 kts 155°
2026-05-05 17:33 51.34829 -1.06660 35280 ft 436 kts 155°
2026-05-05 17:33 51.32093 -1.04561 35500 ft 436 kts 156°
2026-05-05 17:33 51.29354 -1.02463 35600 ft 438 kts 155°
2026-05-05 17:33 51.26596 -1.00353 35729 ft 439 kts 155°
2026-05-05 17:34 51.23847 -0.98251 35911 ft 439 kts 155°
2026-05-05 17:34 51.21089 -0.96146 36069 ft 439 kts 155°
2026-05-05 17:34 51.18361 -0.94067 36201 ft 439 kts 155°
2026-05-05 17:34 51.15600 -0.91964 36347 ft 440 kts 155°
2026-05-05 17:35 51.12844 -0.89869 36517 ft 440 kts 155°
2026-05-05 17:35 51.10075 -0.87761 36667 ft 440 kts 155°
2026-05-05 17:35 51.07520 -0.85819 36784 ft 440 kts 155°
2026-05-05 17:35 51.04857 -0.83804 36908 ft 440 kts 155°
2026-05-05 17:36 51.02081 -0.81707 36924 ft 442 kts 155°
2026-05-05 17:36 50.96519 -0.77513 36933 ft 441 kts 155°
2026-05-05 17:37 50.90988 -0.73349 36933 ft 439 kts 155°
2026-05-05 17:37 50.85514 -0.69233 36918 ft 437 kts 155°
2026-05-05 17:38 50.80027 -0.65120 36927 ft 436 kts 155°
2026-05-05 17:38 50.74616 -0.61083 36928 ft 435 kts 155°
2026-05-05 17:39 50.69136 -0.57002 36936 ft 436 kts 155°
2026-05-05 17:39 50.63642 -0.52920 36933 ft 437 kts 155°
2026-05-05 17:40 50.58136 -0.48839 36925 ft 438 kts 155°
2026-05-05 17:40 50.52602 -0.44748 36927 ft 440 kts 155°
2026-05-05 17:41 50.47052 -0.40655 36924 ft 441 kts 155°
2026-05-05 17:41 50.41481 -0.36558 36922 ft 443 kts 155°
2026-05-05 17:42 50.35930 -0.32486 36921 ft 443 kts 155°
2026-05-05 17:42 50.30334 -0.28392 36920 ft 444 kts 155°
2026-05-05 17:43 50.24741 -0.24310 36916 ft 443 kts 155°
2026-05-05 17:43 50.19160 -0.20248 36920 ft 442 kts 155°
2026-05-05 17:44 50.13594 -0.16207 36918 ft 440 kts 155°
2026-05-05 17:44 50.08052 -0.12194 36920 ft 438 kts 155°
2026-05-05 17:45 50.02537 -0.08210 36920 ft 436 kts 155°
2026-05-05 17:45 49.97090 -0.04286 36913 ft 434 kts 155°
2026-05-05 17:46 49.91607 -0.00345 36913 ft 432 kts 155°
2026-05-05 17:46 49.86162 0.03559 36909 ft 431 kts 155°
2026-05-05 17:47 49.80725 0.07447 36903 ft 430 kts 155°
2026-05-05 17:47 49.75321 0.11303 36904 ft 430 kts 155°
2026-05-05 17:48 49.69861 0.15189 36905 ft 433 kts 155°
2026-05-05 17:48 49.64127 0.18143 36898 ft 436 kts 165°
2026-05-05 17:49 49.58222 0.20444 36890 ft 439 kts 166°
2026-05-05 17:49 49.52292 0.22783 36883 ft 440 kts 165°
2026-05-05 17:50 49.46406 0.25148 36875 ft 440 kts 165°
2026-05-05 17:50 49.40510 0.27523 36877 ft 436 kts 165°
2026-05-05 17:51 49.34667 0.29871 36888 ft 432 kts 165°
2026-05-05 17:51 49.28858 0.32214 36885 ft 430 kts 164°
2026-05-05 17:52 49.23089 0.34642 36883 ft 430 kts 164°
2026-05-05 17:52 49.17316 0.37085 36889 ft 431 kts 164°
2026-05-05 17:53 49.11524 0.39520 36884 ft 433 kts 164°
2026-05-05 17:53 49.05700 0.41954 36888 ft 435 kts 164°
2026-05-05 17:54 48.99837 0.44398 36884 ft 437 kts 164°
2026-05-05 17:54 48.93950 0.46847 36876 ft 440 kts 164°
2026-05-05 17:55 48.88036 0.49301 36884 ft 441 kts 164°
2026-05-05 17:55 48.82101 0.51759 36870 ft 442 kts 164°
2026-05-05 17:56 48.76154 0.54185 36869 ft 442 kts 165°
2026-05-05 17:56 48.70200 0.56501 36872 ft 441 kts 165°
2026-05-05 17:57 48.64259 0.58805 36867 ft 440 kts 165°
2026-05-05 17:57 48.58341 0.61110 36869 ft 438 kts 165°
2026-05-05 17:58 48.52488 0.63387 36867 ft 437 kts 165°
2026-05-05 17:58 48.46621 0.65740 36872 ft 436 kts 164°
2026-05-05 17:59 48.40769 0.68135 36866 ft 435 kts 164°
2026-05-05 17:59 48.34921 0.70512 36870 ft 435 kts 164°
2026-05-05 18:00 48.29080 0.72874 36862 ft 435 kts 165°
2026-05-05 18:00 48.23225 0.75228 36867 ft 435 kts 165°
2026-05-05 18:01 48.17363 0.77537 36874 ft 437 kts 165°
2026-05-05 18:01 48.11467 0.79848 36854 ft 438 kts 165°
2026-05-05 18:02 48.05569 0.82161 36856 ft 439 kts 165°
2026-05-05 18:02 47.99701 0.84459 36849 ft 440 kts 165°
2026-05-05 18:03 47.93758 0.86781 36858 ft 441 kts 165°
2026-05-05 18:03 47.87812 0.89099 36849 ft 442 kts 165°
2026-05-05 18:04 47.81855 0.91414 36846 ft 442 kts 165°
2026-05-05 18:04 47.75891 0.93722 36846 ft 443 kts 166°
2026-05-05 18:05 47.69915 0.96029 36851 ft 443 kts 166°
2026-05-05 18:05 47.63937 0.98333 36850 ft 444 kts 166°
2026-05-05 18:06 47.57941 1.00639 36850 ft 444 kts 166°
2026-05-05 18:06 47.51953 1.02936 36847 ft 444 kts 166°
2026-05-05 18:07 47.46007 1.05212 36856 ft 444 kts 166°
2026-05-05 18:07 47.39914 1.06497 36851 ft 442 kts 181°
2026-05-05 18:08 47.33761 1.06292 36848 ft 442 kts 182°
2026-05-05 18:08 47.27622 1.06072 36851 ft 441 kts 181°
2026-05-05 18:09 47.21481 1.05915 36851 ft 441 kts 181°
2026-05-05 18:09 47.15350 1.05781 36847 ft 440 kts 181°
2026-05-05 18:10 47.09229 1.05647 36852 ft 439 kts 181°
2026-05-05 18:10 47.03117 1.05512 36849 ft 439 kts 181°
2026-05-05 18:11 46.97015 1.05294 36858 ft 438 kts 182°
2026-05-05 18:11 46.90921 1.05008 36858 ft 438 kts 182°
2026-05-05 18:12 46.84865 1.04732 36854 ft 438 kts 182°
2026-05-05 18:12 46.78775 1.04466 36856 ft 438 kts 182°
2026-05-05 18:13 46.72677 1.04204 36862 ft 438 kts 182°
2026-05-05 18:13 46.66573 1.03942 36855 ft 439 kts 182°
2026-05-05 18:14 46.60465 1.03680 36858 ft 439 kts 182°
2026-05-05 18:14 46.54349 1.03418 36863 ft 440 kts 182°
2026-05-05 18:15 46.48272 1.04250 36874 ft 441 kts 168°
2026-05-05 18:15 46.42288 1.06310 36885 ft 442 kts 168°
2026-05-05 18:16 46.36310 1.08384 36868 ft 442 kts 168°
2026-05-05 18:16 46.30358 1.10397 36882 ft 442 kts 168°
2026-05-05 18:17 46.24354 1.12397 36889 ft 442 kts 168°
2026-05-05 18:17 46.18348 1.14388 36888 ft 442 kts 168°
2026-05-05 18:18 46.12348 1.16373 36906 ft 442 kts 168°
2026-05-05 18:18 46.07361 1.18020 36908 ft 442 kts 168°
2026-05-05 18:19 46.01365 1.19998 36906 ft 442 kts 168°
2026-05-05 18:19 45.95366 1.21971 36911 ft 441 kts 168°
2026-05-05 18:20 45.89409 1.23927 36910 ft 441 kts 169°
2026-05-05 18:20 45.83418 1.25890 36916 ft 441 kts 169°
2026-05-05 18:21 45.77432 1.27846 36911 ft 441 kts 169°
2026-05-05 18:21 45.71448 1.29797 36911 ft 442 kts 169°
2026-05-05 18:22 45.65410 1.31762 36920 ft 448 kts 169°
2026-05-05 18:22 45.59303 1.33744 36916 ft 452 kts 169°
2026-05-05 18:23 45.53146 1.35301 36914 ft 453 kts 173°
2026-05-05 18:23 45.46864 1.36579 36910 ft 453 kts 174°
2026-05-05 18:24 45.40676 1.37850 36913 ft 452 kts 173°
2026-05-05 18:24 45.34475 1.39174 36913 ft 450 kts 173°
2026-05-05 18:25 45.28301 1.40514 36912 ft 447 kts 173°
2026-05-05 18:25 45.22157 1.41849 36910 ft 445 kts 173°
2026-05-05 18:26 45.16046 1.43173 36908 ft 443 kts 173°
2026-05-05 18:26 45.09968 1.44486 36909 ft 441 kts 173°
2026-05-05 18:27 45.03945 1.45784 36908 ft 440 kts 173°
2026-05-05 18:27 44.97894 1.47084 36914 ft 440 kts 174°
2026-05-05 18:28 44.88797 1.49034 36918 ft 441 kts 174°
2026-05-05 18:28 44.82706 1.50336 36909 ft 443 kts 174°
2026-05-05 18:29 44.76602 1.51639 36919 ft 444 kts 174°
2026-05-05 18:29 44.70514 1.52935 36925 ft 446 kts 174°
2026-05-05 18:30 44.64369 1.54241 36925 ft 447 kts 174°
2026-05-05 18:30 44.58203 1.55548 36923 ft 448 kts 174°
2026-05-05 18:31 44.52030 1.56855 36923 ft 448 kts 174°
2026-05-05 18:31 44.45901 1.58149 36926 ft 448 kts 174°
2026-05-05 18:32 44.39734 1.59448 36932 ft 447 kts 174°
2026-05-05 18:32 44.33574 1.60744 36934 ft 446 kts 175°
2026-05-05 18:33 44.27439 1.62031 36933 ft 445 kts 175°
2026-05-05 18:33 44.21313 1.63314 36937 ft 444 kts 175°
2026-05-05 18:34 44.15246 1.64581 36944 ft 443 kts 175°
2026-05-05 18:34 44.09159 1.65850 36942 ft 442 kts 175°
2026-05-05 18:35 44.03079 1.67115 36945 ft 441 kts 175°
2026-05-05 18:35 43.97014 1.68374 36949 ft 440 kts 175°
2026-05-05 18:36 43.90957 1.69629 36951 ft 440 kts 175°
2026-05-05 18:36 43.84887 1.70883 36950 ft 440 kts 175°
2026-05-05 18:37 43.78822 1.72134 36953 ft 439 kts 175°
2026-05-05 18:37 43.72814 1.73371 36954 ft 440 kts 175°
2026-05-05 18:38 43.66757 1.74616 36960 ft 440 kts 175°
2026-05-05 18:38 43.60699 1.75858 36971 ft 440 kts 175°
2026-05-05 18:39 43.54634 1.77099 36969 ft 441 kts 176°
2026-05-05 18:39 43.48563 1.78339 36967 ft 441 kts 176°
2026-05-05 18:40 43.42521 1.79571 36966 ft 441 kts 176°
2026-05-05 18:40 43.36451 1.80806 36969 ft 441 kts 176°
2026-05-05 18:41 43.30376 1.82039 36973 ft 441 kts 176°
2026-05-05 18:41 43.24300 1.83270 36969 ft 441 kts 176°
2026-05-05 18:42 43.18219 1.84499 36972 ft 441 kts 176°
2026-05-05 18:42 43.12156 1.85723 36971 ft 440 kts 176°
2026-05-05 18:43 43.06094 1.86944 36972 ft 440 kts 176°
2026-05-05 18:43 43.00038 1.88161 36969 ft 440 kts 176°
2026-05-05 18:44 42.93976 1.89377 36974 ft 439 kts 176°
2026-05-05 18:44 42.87966 1.90580 36967 ft 439 kts 176°
2026-05-05 18:45 42.82047 1.91764 36973 ft 438 kts 177°
2026-05-05 18:45 42.76007 1.92967 36959 ft 439 kts 177°
2026-05-05 18:46 42.69974 1.94398 36955 ft 445 kts 168°
2026-05-05 18:46 42.64295 1.98011 36954 ft 458 kts 151°
2026-05-05 18:47 42.59294 2.03503 36957 ft 464 kts 145°
2026-05-05 18:47 42.54363 2.09195 36932 ft 466 kts 146°
2026-05-05 18:48 42.49389 2.14805 36937 ft 465 kts 147°
2026-05-05 18:48 42.44399 2.20373 36931 ft 464 kts 147°
2026-05-05 18:49 42.39415 2.25933 36907 ft 463 kts 147°
2026-05-05 18:49 42.34452 2.31475 36917 ft 463 kts 147°
2026-05-05 18:50 42.29518 2.36973 36913 ft 462 kts 147°
2026-05-05 18:50 42.24554 2.42491 36907 ft 462 kts 147°
2026-05-05 18:51 42.19599 2.47990 36902 ft 461 kts 148°
2026-05-05 18:51 42.14647 2.53473 36900 ft 460 kts 148°
2026-05-05 18:52 42.09699 2.58939 36898 ft 460 kts 148°
2026-05-05 18:52 42.04748 2.64397 36878 ft 458 kts 148°
2026-05-05 18:53 41.99835 2.69807 36784 ft 456 kts 148°
2026-05-05 18:53 41.97368 2.72515 36211 ft 459 kts 149°
2026-05-05 18:53 41.94910 2.75215 35806 ft 453 kts 149°
2026-05-05 18:54 41.92504 2.77824 35420 ft 446 kts 151°
2026-05-05 18:54 41.90038 2.80291 35015 ft 439 kts 153°
2026-05-05 18:54 41.87561 2.82656 34620 ft 434 kts 154°
2026-05-05 18:54 41.85103 2.84966 34220 ft 429 kts 155°
2026-05-05 18:55 41.82666 2.87255 33814 ft 425 kts 155°
2026-05-05 18:55 41.80255 2.89530 33350 ft 422 kts 155°
2026-05-05 18:55 41.77871 2.91789 32934 ft 417 kts 155°
2026-05-05 18:55 41.75516 2.94029 32543 ft 413 kts 156°
2026-05-05 18:56 41.73187 2.96247 32134 ft 409 kts 156°
2026-05-05 18:56 41.70879 2.98444 31743 ft 406 kts 156°
2026-05-05 18:56 41.68586 3.00625 31362 ft 402 kts 156°
2026-05-05 18:56 41.66310 3.02788 30984 ft 399 kts 156°
2026-05-05 18:57 41.64056 3.04928 30611 ft 396 kts 156°
2026-05-05 18:57 41.61812 3.07056 30241 ft 394 kts 157°
2026-05-05 18:57 41.59678 3.09078 29871 ft 391 kts 157°
2026-05-05 18:57 41.57513 3.11128 29459 ft 388 kts 156°
2026-05-05 18:58 41.55275 3.13247 29077 ft 384 kts 156°
2026-05-05 18:58 41.53102 3.15302 28669 ft 380 kts 156°
2026-05-05 18:58 41.50956 3.17330 28320 ft 376 kts 156°
2026-05-05 18:58 41.48832 3.19302 27936 ft 370 kts 158°
2026-05-05 18:59 41.46673 3.21136 27582 ft 364 kts 160°
2026-05-05 18:59 41.44547 3.22864 27204 ft 361 kts 160°
2026-05-05 18:59 41.42405 3.24586 26838 ft 358 kts 160°
2026-05-05 18:59 41.40277 3.26300 26477 ft 356 kts 160°
2026-05-05 19:00 41.38159 3.28014 26113 ft 354 kts 160°
2026-05-05 19:00 41.36061 3.29719 25751 ft 352 kts 160°
2026-05-05 19:00 41.33982 3.31412 25402 ft 350 kts 160°
2026-05-05 19:00 41.31911 3.33101 25057 ft 348 kts 159°
2026-05-05 19:01 41.29877 3.34759 24716 ft 346 kts 159°
2026-05-05 19:01 41.27828 3.36429 24368 ft 345 kts 160°
2026-05-05 19:01 41.25778 3.38099 24019 ft 344 kts 159°
2026-05-05 19:01 41.23743 3.39755 23675 ft 343 kts 160°
2026-05-05 19:02 41.21708 3.41411 23302 ft 342 kts 159°
2026-05-05 19:02 41.19684 3.43055 22889 ft 341 kts 159°
2026-05-05 19:02 41.17685 3.44682 22531 ft 339 kts 159°
2026-05-05 19:02 41.15669 3.46334 22213 ft 336 kts 159°
2026-05-05 19:03 41.13684 3.47961 21845 ft 334 kts 159°
2026-05-05 19:03 41.11708 3.49579 21475 ft 333 kts 158°
2026-05-05 19:03 41.09768 3.51167 21181 ft 330 kts 158°
2026-05-05 19:03 41.07816 3.52762 20826 ft 329 kts 158°
2026-05-05 19:04 41.05873 3.54347 20485 ft 327 kts 158°
2026-05-05 19:04 41.03935 3.55920 20139 ft 326 kts 158°
2026-05-05 19:04 41.02003 3.57483 19804 ft 325 kts 158°
2026-05-05 19:04 41.00071 3.59045 19462 ft 324 kts 157°
2026-05-05 19:05 40.98147 3.60599 19125 ft 324 kts 157°
2026-05-05 19:05 40.96232 3.62145 18787 ft 323 kts 157°
2026-05-05 19:05 40.94306 3.63700 18459 ft 323 kts 156°
2026-05-05 19:05 40.92394 3.65242 18119 ft 322 kts 156°
2026-05-05 19:06 40.90481 3.66785 17736 ft 322 kts 156°
2026-05-05 19:06 40.88570 3.68326 17377 ft 321 kts 156°
2026-05-05 19:06 40.86673 3.69854 17024 ft 319 kts 156°
2026-05-05 19:06 40.84780 3.71379 16698 ft 318 kts 156°
2026-05-05 19:07 40.82897 3.72894 16369 ft 316 kts 156°
2026-05-05 19:07 40.81656 3.73892 16151 ft 315 kts 156°
2026-05-05 19:07 40.79784 3.75397 15823 ft 314 kts 156°
2026-05-05 19:07 40.77922 3.76892 15499 ft 312 kts 155°
2026-05-05 19:08 40.76068 3.78380 15174 ft 311 kts 155°
2026-05-05 19:08 40.74221 3.79861 14850 ft 310 kts 155°
2026-05-05 19:08 40.71785 3.81813 14425 ft 308 kts 155°
2026-05-05 19:08 40.70549 3.82803 14208 ft 307 kts 155°
2026-05-05 19:09 40.68727 3.84262 13877 ft 306 kts 155°
2026-05-05 19:09 40.66916 3.85710 13557 ft 304 kts 155°
2026-05-05 19:09 40.65133 3.87136 13206 ft 302 kts 155°
2026-05-05 19:09 40.63336 3.88572 12873 ft 300 kts 155°
2026-05-05 19:10 40.61557 3.89992 12552 ft 298 kts 155°
2026-05-05 19:10 40.59792 3.91401 12234 ft 296 kts 154°
2026-05-05 19:10 40.58034 3.92803 11918 ft 294 kts 154°
2026-05-05 19:10 40.56293 3.94191 11601 ft 292 kts 154°
2026-05-05 19:11 40.54556 3.95574 11297 ft 291 kts 154°
2026-05-05 19:11 40.52832 3.96947 10980 ft 289 kts 154°
2026-05-05 19:11 40.51114 3.98312 10667 ft 288 kts 154°
2026-05-05 19:11 40.49351 3.99520 10363 ft 282 kts 165°
2026-05-05 19:12 40.47490 4.00233 10154 ft 275 kts 170°
2026-05-05 19:12 40.46214 4.00669 10074 ft 269 kts 170°
2026-05-05 19:12 40.44362 4.01294 9942 ft 262 kts 170°
2026-05-05 19:12 40.42616 4.01887 9726 ft 258 kts 170°
2026-05-05 19:13 40.40880 4.02482 9448 ft 257 kts 170°
2026-05-05 19:13 40.39156 4.03079 9177 ft 255 kts 170°
2026-05-05 19:13 40.37444 4.03676 8942 ft 252 kts 169°
2026-05-05 19:13 40.35777 4.04261 8707 ft 252 kts 169°
2026-05-05 19:14 40.34065 4.04861 8463 ft 257 kts 169°
2026-05-05 19:14 40.32311 4.05476 8196 ft 264 kts 169°
2026-05-05 19:14 40.30516 4.06107 7918 ft 269 kts 169°
2026-05-05 19:14 40.28714 4.06744 7629 ft 268 kts 169°
2026-05-05 19:15 40.26936 4.07373 7343 ft 267 kts 169°
2026-05-05 19:15 40.25143 4.08007 7067 ft 266 kts 169°
2026-05-05 19:15 40.23357 4.08638 6786 ft 265 kts 169°
2026-05-05 19:15 40.21580 4.09265 6513 ft 264 kts 169°
2026-05-05 19:16 40.19811 4.09889 6228 ft 264 kts 168°
2026-05-05 19:16 40.18037 4.10515 5936 ft 263 kts 168°
2026-05-05 19:16 40.16269 4.11138 5649 ft 263 kts 168°
2026-05-05 19:16 40.14505 4.11759 5368 ft 262 kts 168°
2026-05-05 19:17 40.12743 4.12378 5092 ft 262 kts 168°
2026-05-05 19:17 40.10988 4.12995 4822 ft 261 kts 168°
2026-05-05 19:17 40.09301 4.13883 4521 ft 266 kts 146°
2026-05-05 19:17 40.08128 4.15704 4265 ft 270 kts 115°
2026-05-05 19:18 40.07784 4.18092 4016 ft 269 kts 87°
2026-05-05 19:18 40.07985 4.20493 3866 ft 263 kts 85°
2026-05-05 19:18 40.07697 4.22783 3720 ft 254 kts 121°
2026-05-05 19:18 40.06484 4.24325 3620 ft 236 kts 159°
2026-05-05 19:19 40.04973 4.24859 3544 ft 223 kts 175°
2026-05-05 19:19 40.03447 4.25046 3422 ft 215 kts 183°
2026-05-05 19:19 40.01971 4.24997 3210 ft 210 kts 187°
2026-05-05 19:19 40.00543 4.24808 2963 ft 203 kts 191°
2026-05-05 19:20 39.99172 4.24536 2705 ft 194 kts 193°
2026-05-05 19:20 39.97881 4.24266 2456 ft 180 kts 193°
2026-05-05 19:20 39.96681 4.24018 2208 ft 169 kts 192°
2026-05-05 19:20 39.95575 4.23790 2014 ft 153 kts 193°
2026-05-05 19:21 39.94559 4.23579 1802 ft 146 kts 193°
2026-05-05 19:21 39.93578 4.23375 1614 ft 141 kts 193°
2026-05-05 19:21 39.92601 4.23174 1441 ft 145 kts 192°
2026-05-05 19:21 39.91586 4.22986 1276 ft 145 kts 192°
2026-05-05 19:22 39.90606 4.22771 1101 ft 140 kts 191°
2026-05-05 19:22 39.89675 4.22568 859 ft 136 kts 191°
2026-05-05 19:22 39.88741 4.22397 680 ft 131 kts 193°
2026-05-05 19:22 39.87839 4.22198 455 ft 132 kts 191°
2026-05-05 19:23 39.86975 4.22018 315 ft 121 kts 191°
2026-05-05 19:23 39.86285 4.21872 296 ft 81 kts 189°
2026-05-05 19:23 39.85866 4.21783 297 ft 44 kts 190°
2026-05-05 19:23 39.85618 4.21760 295 ft 23 kts 173°
2026-05-05 19:24 39.85506 4.21795 293 ft 10 kts 161°
2026-05-05 19:24 39.85447 4.21824 291 ft 9 kts 159°
2026-05-05 19:24 39.85415 4.21845 293 ft 1 kts 144°
2026-05-05 19:24 39.85405 4.21862 290 ft 2 kts 118°
2026-05-05 19:25 39.85402 4.21876 292 ft 4 kts 101°
2026-05-05 19:25 39.85419 4.21924 294 ft 6 kts 37°
2026-05-05 19:25 39.85461 4.21940 290 ft 8 kts
2026-05-05 19:25 39.85468 4.21941 290 ft 0 kts
2026-05-05 19:27 39.85474 4.21942 290 ft 3 kts
2026-05-05 19:28 39.85516 4.21951 291 ft 10 kts
2026-05-05 19:28 39.85605 4.21969 292 ft 16 kts
2026-05-05 19:28 39.85723 4.21993 295 ft 18 kts
2026-05-05 19:28 39.85843 4.22018 294 ft 17 kts
2026-05-05 19:29 39.85958 4.22042 295 ft 16 kts
2026-05-05 19:29 39.86069 4.22065 298 ft 16 kts
2026-05-05 19:29 39.86172 4.22094 300 ft 14 kts 34°
2026-05-05 19:29 39.86184 4.22211 297 ft 14 kts 93°
2026-05-05 19:30 39.86253 4.22272 298 ft 13 kts 10°
2026-05-05 19:30 39.86324 4.22287 300 ft 0 kts
2026-05-05 19:30 39.86327 4.22288 299 ft 2 kts
2026-05-05 19:31 39.86357 4.22294 299 ft 8 kts
2026-05-05 19:31 39.86420 4.22307 303 ft 8 kts 10°
2026-05-05 19:31 39.86468 4.22323 302 ft 4 kts 33°
2026-05-05 19:31 39.86472 4.22359 300 ft 4 kts 98°
2026-05-05 19:32 39.86467 4.22395 304 ft 2 kts 99°
2026-05-05 19:32 39.86466 4.22406 302 ft 1 kts 99°
2026-05-05 19:32 39.86466 4.22407 302 ft 0 kts 99°